SP4IM-13 Weather Reports


Display with metric or nautical units.
time (UTC)temp
F
wind
direction
speed
MPH
gust
MPH
rain 1hr
in
rain 24hr
in
rain mn
in
humidity
%
barometer
mb
20260508095002 51 81 2.0 6.0 0.00 0.00 0.00 90 1014.0
20260508094002 51 36 2.0 5.0 0.00 0.00 0.00 90 1014.0
20260508093002 51 105 3.0 5.0 0.00 0.00 0.00 90 1014.0
20260508092002 51 105 3.0 5.0 0.00 0.00 0.00 90 1014.0
20260508091002 50 90 2.0 4.0 0.00 0.00 0.00 91 1014.0
20260508090003 50 90 2.0 5.0 0.00 0.00 0.00 91 1014.0
20260508085002 50 97 3.0 5.0 0.00 0.00 0.00 91 1014.0
20260508084002 50 114 3.0 8.0 0.00 0.00 0.00 91 1014.0
20260508083002 50 119 4.0 8.0 0.00 0.00 0.00 91 1014.0
20260508082004 50 116 4.0 8.0 0.00 0.00 0.00 91 1014.0
20260508081002 50 101 3.0 9.0 0.00 0.00 0.00 92 1014.0
20260508080002 49 105 3.0 6.0 0.00 0.00 0.00 92 1014.0
20260508075003 49 108 3.0 5.0 0.00 0.00 0.00 92 1014.0
20260508074007 49 109 3.0 7.0 0.00 0.00 0.00 92 1014.0
20260508073004 49 104 2.0 6.0 0.00 0.00 0.00 92 1014.0
20260508072003 49 90 2.0 5.0 0.00 0.00 0.00 92 1014.0
20260508071003 49 110 4.0 9.0 0.00 0.00 0.00 91 1014.0
20260508070003 49 116 4.0 8.0 0.00 0.00 0.00 91 1013.0
20260508065004 49 100 2.0 6.0 0.00 0.00 0.00 91 1013.0
20260508064002 49 112 3.0 7.0 0.00 0.00 0.00 91 1013.0
20260508063003 49 98 3.0 8.0 0.00 0.00 0.00 91 1013.0
20260508062003 49 118 4.0 8.0 0.00 0.00 0.00 90 1013.0
20260508061005 49 90 2.0 5.0 0.00 0.00 0.00 91 1013.0
20260508060012 49 97 3.0 6.0 0.00 0.00 0.00 90 1013.0
20260508055004 49 90 3.0 6.0 0.00 0.00 0.00 90 1013.0
20260508054010 49 90 3.0 8.0 0.00 0.00 0.00 90 1013.0
20260508053003 49 109 4.0 9.0 0.00 0.00 0.00 90 1013.0
20260508052010 49 90 3.0 6.0 0.00 0.00 0.00 90 1013.0
20260508051003 49 112 3.0 9.0 0.00 0.00 0.00 90 1013.0
20260508050003 49 117 4.0 8.0 0.00 0.00 0.00 90 1013.0
20260508045005 49 98 3.0 7.0 0.00 0.00 0.00 90 1013.0
20260508044005 49 123 4.0 9.0 0.00 0.00 0.00 90 1013.0
20260508043003 49 74 2.0 6.0 0.00 0.00 0.00 89 1013.0
20260508042009 49 117 4.0 8.0 0.00 0.00 0.00 89 1013.0
20260508041005 49 109 3.0 7.0 0.00 0.00 0.00 89 1013.0
20260508040007 49 112 2.0 6.0 0.00 0.00 0.00 89 1013.0
20260508035004 49 102 2.0 5.0 0.00 0.00 0.00 89 1013.0
20260508034006 49 95 3.0 8.0 0.00 0.00 0.00 89 1013.0
20260508033003 49 103 3.0 7.0 0.00 0.00 0.00 89 1012.0
20260508032003 49 124 5.0 9.0 0.00 0.00 0.00 89 1012.0
20260508031003 51 125 5.0 10.0 0.00 0.00 0.00 88 1012.0
20260508030004 51 86 4.0 8.0 0.00 0.00 0.00 88 1012.0
20260508025003 49 102 4.0 9.0 0.00 0.00 0.00 88 1012.0
20260508024002 49 120 4.0 8.0 0.00 0.00 0.00 88 1012.0
20260508023002 49 100 3.0 6.0 0.00 0.00 0.00 88 1012.0
20260508022002 49 118 4.0 9.0 0.00 0.00 0.00 88 1012.0
20260508021002 49 107 3.0 6.0 0.00 0.00 0.00 88 1012.0
20260508020002 49 113 4.0 6.0 0.00 0.00 0.00 87 1012.0
20260508015002 49 113 4.0 6.0 0.00 0.00 0.00 87 1012.0
20260508014002 49 118 4.0 9.0 0.00 0.00 0.00 87 1012.0
20260508013002 50 108 4.0 7.0 0.00 0.00 0.00 87 1012.0
20260508012002 50 118 3.0 6.0 0.00 0.00 0.00 86 1012.0
20260508011001 50 122 4.0 9.0 0.00 0.00 0.00 86 1012.0
20260508010002 50 118 4.0 9.0 0.00 0.00 0.00 86 1012.0
20260508005002 50 102 4.0 8.0 0.00 0.00 0.00 86 1012.0
20260508004002 50 114 4.0 6.0 0.00 0.00 0.00 86 1012.0
20260508003002 50 99 3.0 6.0 0.00 0.00 0.00 86 1012.0
20260508002003 50 115 3.0 6.0 0.00 0.00 0.00 86 1012.0
20260508001002 50 112 3.0 6.0 0.00 0.00 0.00 86 1012.0
20260508000002 50 107 2.0 5.0 0.00 0.00 0.00 86 1012.0
20260507235002 50 119 4.0 8.0 0.00 0.00 0.00 86 1012.0
20260507234002 50 101 3.0 5.0 0.00 0.00 0.00 86 1012.0
20260507233002 50 110 3.0 5.0 0.00 0.00 0.00 85 1012.0
20260507232002 50 111 4.0 8.0 0.00 0.00 0.00 85 1012.0
20260507231002 50 115 5.0 9.0 0.00 0.00 0.00 85 1012.0
20260507230002 50 120 5.0 9.0 0.00 0.00 0.00 85 1012.0
20260507225002 50 117 3.0 6.0 0.00 0.00 0.00 85 1012.0
20260507224002 50 125 5.0 9.0 0.00 0.00 0.00 84 1012.0
20260507223003 50 100 3.0 7.0 0.00 0.00 0.00 84 1012.0
20260507222003 50 117 4.0 7.0 0.00 0.00 0.00 84 1012.0
20260507221004 50 121 5.0 10.0 0.00 0.00 0.00 85 1012.0
20260507220002 51 113 5.0 9.0 0.00 0.00 0.00 84 1012.0
20260507215002 51 114 4.0 8.0 0.00 0.00 0.00 84 1012.0
20260507214001 51 104 5.0 11.0 0.00 0.00 0.00 84 1012.0
20260507213002 51 114 4.0 9.0 0.00 0.00 0.00 83 1012.0
20260507212002 51 123 6.0 10.0 0.00 0.00 0.00 83 1012.0
20260507211003 52 100 3.0 6.0 0.00 0.00 0.00 83 1012.0
20260507210003 52 118 5.0 8.0 0.00 0.00 0.00 83 1012.0
20260507205003 52 118 4.0 9.0 0.00 0.00 0.00 83 1012.0
20260507204002 52 112 4.0 9.0 0.00 0.00 0.00 83 1012.0
20260507203002 52 108 4.0 7.0 0.00 0.00 0.00 83 1012.0
20260507202002 52 90 3.0 6.0 0.00 0.00 0.00 83 1012.0
20260507201002 52 77 4.0 9.0 0.00 0.00 0.00 83 1012.0
20260507200002 52 90 4.0 9.0 0.00 0.00 0.00 84 1012.0
20260507195002 52 113 3.0 6.0 0.00 0.00 0.00 83 1012.0
20260507194002 52 127 5.0 8.0 0.00 0.00 0.00 83 1012.0
20260507193002 52 120 4.0 8.0 0.00 0.00 0.00 84 1012.0
20260507192002 52 118 4.0 7.0 0.00 0.00 0.00 84 1012.0
20260507191002 53 110 4.0 8.0 0.00 0.00 0.00 84 1012.0
20260507190004 53 111 4.0 9.0 0.00 0.00 0.00 84 1011.0
20260507185002 53 112 5.0 9.0 0.00 0.00 0.00 84 1011.0
20260507184002 53 112 5.0 11.0 0.00 0.00 0.00 84 1011.0
20260507183002 53 117 5.0 9.0 0.00 0.00 0.00 83 1011.0
20260507182002 53 125 6.0 11.0 0.00 0.00 0.00 83 1011.0
20260507181003 53 113 5.0 12.0 0.00 0.00 0.00 83 1011.0
20260507180002 54 111 4.0 9.0 0.00 0.00 0.00 83 1011.0
20260507175002 54 112 5.0 11.0 0.00 0.00 0.00 82 1011.0
20260507174002 54 108 4.0 9.0 0.00 0.00 0.00 81 1010.0
20260507173002 54 90 3.0 8.0 0.00 0.00 0.00 81 1010.0
20260507172002 55 115 5.0 11.0 0.00 0.00 0.00 80 1010.0
20260507171002 55 94 5.0 10.0 0.00 0.00 0.00 80 1010.0
20260507170002 56 53 3.0 7.0 0.00 0.00 0.00 79 1010.0
20260507165004 56 102 5.0 12.0 0.00 0.00 0.00 78 1010.0
20260507164002 56 90 3.0 11.0 0.00 0.00 0.00 78 1010.0
20260507163002 57 96 4.0 10.0 0.00 0.00 0.00 77 1010.0
20260507162002 58 107 4.0 10.0 0.00 0.00 0.00 76 1010.0
20260507161002 58 36 3.0 8.0 0.00 0.00 0.00 76 1010.0
20260507160002 59 43 4.0 9.0 0.00 0.00 0.00 75 1010.0
20260507155003 60 50 3.0 9.0 0.00 0.00 0.00 74 1009.0
20260507154002 60 18 4.0 8.0 0.00 0.00 0.00 73 1009.0
20260507153004 61 75 3.0 8.0 0.00 0.00 0.00 72 1009.0
20260507152002 61 98 4.0 9.0 0.00 0.00 0.00 72 1009.0
20260507151003 62 90 4.0 11.0 0.00 0.00 0.00 72 1009.0
20260507150002 62 39 3.0 8.0 0.00 0.00 0.00 72 1009.0
20260507145002 62 90 3.0 8.0 0.00 0.00 0.00 71 1009.0
20260507144001 63 73 3.0 7.0 0.00 0.00 0.00 70 1009.0
20260507143002 64 35 3.0 10.0 0.00 0.00 0.00 69 1009.0
20260507142002 65 39 3.0 10.0 0.00 0.00 0.00 68 1009.0
20260507141002 66 72 3.0 8.0 0.00 0.00 0.00 68 1009.0
20260507140002 67 50 3.0 9.0 0.00 0.00 0.00 67 1009.0
20260507135002 67 60 3.0 7.0 0.00 0.00 0.00 66 1008.0
20260507134002 68 30 4.0 9.0 0.00 0.00 0.00 66 1008.0
20260507133002 68 35 3.0 8.0 0.00 0.00 0.00 65 1008.0
20260507132003 68 83 4.0 8.0 0.00 0.00 0.00 63 1008.0
20260507131002 68 76 4.0 9.0 0.00 0.00 0.00 63 1008.0
20260507130002 68 90 4.0 8.0 0.00 0.00 0.00 64 1008.0
20260507125002 69 65 4.0 9.0 0.00 0.00 0.00 63 1008.0
20260507124002 69 67 3.0 10.0 0.00 0.00 0.00 63 1008.0
20260507123003 70 46 4.0 8.0 0.00 0.00 0.00 63 1008.0
20260507122003 70 346 3.0 6.0 0.00 0.00 0.00 64 1008.0
20260507121002 70 84 3.0 7.0 0.00 0.00 0.00 64 1008.0
20260507120005 70 42 3.0 6.0 0.00 0.00 0.00 64 1008.0
20260507115002 70 90 3.0 7.0 0.00 0.00 0.00 64 1007.0
20260507114002 70 61 4.0 9.0 0.00 0.00 0.00 64 1007.0
20260507113002 70 83 4.0 10.0 0.00 0.00 0.00 64 1007.0
20260507112002 70 55 3.0 7.0 0.00 0.00 0.00 64 1007.0
20260507111003 71 73 3.0 10.0 0.00 0.00 0.00 64 1007.0
20260507110002 71 63 4.0 9.0 0.00 0.00 0.00 64 1007.0
20260507105002 71 22 3.0 8.0 0.00 0.00 0.00 63 1007.0
20260507104003 71 15 3.0 7.0 0.00 0.00 0.00 63 1007.0
20260507103009 71 45 3.0 8.0 0.00 0.00 0.00 63 1007.0
20260507102002 71 334 3.0 6.0 0.00 0.00 0.00 64 1006.0
20260507101004 71 352 3.0 10.0 0.00 0.00 0.00 63 1006.0
20260507100004 71 50 3.0 8.0 0.00 0.00 0.00 63 1006.0